Weather History for New Bedford, MA

Change the Weather History Date:

Tuesday, December 11, 2012

  Actual Average Record
Temperature  
Mean Temperature 46 °F -  
Max Temperature 57 °F 42 °F 66 °F (1971)
Min Temperature 35 °F 29 °F 1 °F (1988)
Degree Days  
Heating Degree Days 18    
Moisture  
Dew Point 40 °F    
Average Humidity 74    
Maximum Humidity 100    
Minimum Humidity 44    
Precipitation  
Precipitation 0.04 in - - ()
Sea Level Pressure  
Sea Level Pressure 29.80 in    
Wind  
Wind Speed 6 mph (WNW)    
Max Wind Speed 12 mph    
Max Gust Speed 22 mph    
Visibility 9 miles    
Events Rain    
Averages and records for this station are not official NWS values.
T = Trace of Precipitation, MM = Missing Value Source: NWS Daily Summary

Daily Weather History Graph

Daily Weather History Graph

Search for Another Location

Airport:

Trip Planner

Search our weather history database for the weather conditions in past years. The results will help you decide how hot, cold, wet, or windy it might be!

Date:

Astronomy

Dec. 11, 2012 Rise Set
Actual Time 7:01 AM EST 4:13 PM EST
Civil Twilight 6:29 AM EST 4:44 PM EST
Nautical Twilight 5:54 AM EST 5:19 PM EST
Astronomical Twilight 5:21 AM EST 5:53 PM EST
Moon 4:51 AM EST (12/11) 2:50 PM EST (12/11)
Length of Visible Light 10h 15m
Length of Day
9h 12m
Waning Crescent, 4% of the Moon is Illuminated
Dec 11
Waning Crescent
Dec 13
New
Dec 20
First Quarter
Dec 28
Full
Jan 4
Last Quarter

Hourly Weather History & Observations

Time (EST) Temp. Windchill Dew Point Humidity Pressure Visibility Wind Dir Wind Speed Gust Speed Precip Events Conditions
12:21 AM 57.2 °F - 55.4 °F 94% 29.55 in 7.0 mi SW 8.1 mph - N/A   Overcast
12:53 AM 57.0 °F - 55.0 °F 93% 29.56 in 7.0 mi WSW 6.9 mph - 0.00 in   Overcast
1:32 AM 55.4 °F - 55.4 °F 100% 29.56 in 5.0 mi SW 4.6 mph - N/A   Overcast
1:53 AM 55.9 °F - 54.0 °F 93% 29.58 in 6.0 mi SW 5.8 mph - N/A   Overcast
2:43 AM 55.4 °F - 53.6 °F 94% 29.60 in 6.0 mi SW 5.8 mph - N/A   Mostly Cloudy
2:53 AM 55.9 °F - 54.0 °F 93% 29.60 in 6.0 mi SW 5.8 mph - N/A   Mostly Cloudy
3:05 AM 55.4 °F - 53.6 °F 94% 29.61 in 6.0 mi WSW 6.9 mph - N/A   Overcast
3:18 AM 55.4 °F - 53.6 °F 94% 29.63 in 8.0 mi West 6.9 mph - N/A   Overcast
3:51 AM 55.4 °F - 50.0 °F 82% 29.63 in 10.0 mi WNW 4.6 mph - N/A   Overcast
3:53 AM 55.0 °F - 50.0 °F 83% 29.63 in 10.0 mi NW 5.8 mph - N/A   Overcast
4:53 AM 52.0 °F - 43.0 °F 71% 29.65 in 10.0 mi North 4.6 mph - N/A   Overcast
5:13 AM 51.8 °F - 42.8 °F 71% 29.68 in 10.0 mi North 3.5 mph - N/A   Overcast
5:53 AM 50.0 °F - 44.1 °F 80% 29.68 in 10.0 mi NNW 3.5 mph - N/A   Overcast
6:06 AM 50.0 °F - 42.8 °F 76% 29.69 in 10.0 mi Variable 3.5 mph - N/A   Overcast
6:53 AM 48.9 °F - 42.1 °F 77% 29.70 in 10.0 mi NW 3.5 mph - N/A   Overcast
7:53 AM 48.9 °F - 41.0 °F 74% 29.73 in 10.0 mi Calm Calm - 0.00 in   Overcast
8:53 AM 46.0 °F 42.5 °F 42.1 °F 86% 29.83 in 3.0 mi WNW 6.9 mph - 0.03 in Rain Light Rain
9:02 AM 46.4 °F 42.4 °F 42.8 °F 87% 29.83 in 6.0 mi WNW 8.1 mph - 0.01 in Rain Light Rain
9:53 AM 46.9 °F - 44.1 °F 90% 29.82 in 10.0 mi Variable 6.9 mph - 0.01 in   Mostly Cloudy
10:01 AM 46.4 °F 43.5 °F 42.8 °F 87% 29.82 in 10.0 mi WNW 5.8 mph - N/A   Overcast
10:48 AM 46.4 °F 42.9 °F 39.2 °F 76% 29.84 in 10.0 mi WNW 6.9 mph - N/A   Overcast
10:53 AM 48.0 °F - 39.9 °F 74% 29.84 in 10.0 mi WNW 10.4 mph - N/A   Mostly Cloudy
11:53 AM 50.0 °F - 36.0 °F 59% 29.84 in 10.0 mi WNW 11.5 mph 18.4 mph N/A   Clear
12:53 PM 50.0 °F - 32.0 °F 50% 29.84 in 10.0 mi West 11.5 mph 21.9 mph N/A   Clear
1:53 PM 48.9 °F - 30.0 °F 48% 29.87 in 10.0 mi West 10.4 mph - N/A   Clear
2:53 PM 48.0 °F - 27.0 °F 44% 29.90 in 10.0 mi WNW 6.9 mph - N/A   Clear
3:53 PM 46.0 °F 42.5 °F 26.1 °F 46% 29.94 in 10.0 mi WNW 6.9 mph - N/A   Clear
4:53 PM 41.0 °F 38.0 °F 27.0 °F 57% 29.99 in 10.0 mi WNW 4.6 mph - N/A   Clear
5:53 PM 39.9 °F 36.7 °F 26.1 °F 58% 30.01 in 10.0 mi WNW 4.6 mph - N/A   Clear
6:53 PM 39.9 °F 33.9 °F 27.0 °F 60% 30.05 in 10.0 mi WNW 9.2 mph - N/A   Clear
7:53 PM 39.0 °F 32.8 °F 26.1 °F 60% 30.08 in 10.0 mi West 9.2 mph - N/A   Clear
8:53 PM 37.9 °F 32.7 °F 25.0 °F 60% 30.10 in 10.0 mi West 6.9 mph - N/A   Clear
9:53 PM 37.0 °F 32.4 °F 24.1 °F 59% 30.12 in 10.0 mi WNW 5.8 mph - N/A   Clear
10:53 PM 36.0 °F 31.1 °F 23.0 °F 59% 30.12 in 10.0 mi NW 5.8 mph - N/A   Clear
11:53 PM 35.1 °F 30.1 °F 21.9 °F 59% 30.15 in 10.0 mi Variable 5.8 mph - N/A   Clear